Portada
METAR-TAF:

METAR-TAF

Aeroports :

Vlissingen, Països Baixos

latitud: 51-27N, longitud: 3-36E, altitud: 10 m

Observació

L'informe es va fer fa 38 minuts, a les 14:55 UTC
Vent 24 kt del Sud, variant entre Sud/Sud-Est i Sud-Oest
Temperatura 7°C
Humitat 76%
Pressió 1016 hPa
Visibilitat 10 km o més

METAR: EHFS 101455Z AUTO 19024KT 160V230 9999 NSC 07/03 Q1016

Hora: 16:33 (15:33 UTC)


TAF: manca

Observacions i pronòstics meteorològics de més de 4000 aeroports (METAR i TAF).

Les estacions disponibles són els punts grocs i vermells al mapa.

Posi el ratolí al punt desitjat per veure el nom de l'estació.

Feu clic per veure les observacions i els pronòstics meteorològics.

Per canviar el mapa: feu clic els botons verds amb una creu de color negre per apropar; al botó verd amb un guió per allunyar la imatge; o en les fletxes verdes per a mapes adjacents.


METAR-TAF: